SCP
0 0 0 0 0 0 0 0 0 0 0 0 0 0 0 0 0 0 0 0 0 0 0 -0 0 -0 0 -0 -0 -0 0 -0 -0 -0 0 0 0 0 0 0 0 0 0 0
0 0 0 0 0 0 0 0 0 0 0 0 0 0 0 0 0 0 0 0 0 0 0 -0 -0 0 -0 -0 -0 -0 -0 0 -0 0 0 -0 0 0 0 0 0 0 0 0
0 0 0 0 0 0 0 0 0 0 0 0 0 0 0 0 0 0 0 0 0 0 0 -0 -0 -0 0 -0 -0 -0 -0 0 -0 0 0 0 0 0 0 0 0 0 0 0
0 0 0 0 0 0 0 0 0 0 0 0 0 0 0 0 0 0 0 0 0 0 0 -0 -0 0 -0 -0 -0 -0 -0 -0 -0 -0 0 0 0 0 0 0 0 0 0 0
0 0 0 0 0 0 0 0 0 0 0 0 0 0 0 0 0 0 0 0 0 0 0 -0 -0 -0 0 0 0 -0 -0 0 0 -0 0 0 0 0 0 0 0 0 0 0
0 0 0 0 0 0 0 0 0 0 0 0 0 0 0 0 0 0 0 0 0 0 0 -0 -0 -0 -0 -0 -0 0 -0 0 0 0 -0 -0 0 0 -0 0 -0 0 0 0
0 0 0 0 0 0 0 0 0 0 0 0 0 0 0 0 0 0 0 0 0 0 -0 -0 -0 -0 -0 -0 -0 -0 -0 -0 0 0 0 0 0 0 0 0 0 0 0 0
0 0 0 0 0 0 0 0 0 0 0 0 0 0 0 0 0 0 0 0 0 0 0 0 -0 0 0 0 0 -0 -0 0 0 0 0 0 0 0 0 -0 0 0 0 0
0 0 0 0 0 0 0 0 0 0 0 0 0 0 0 0 0 0 0 0 0 0 0 0 0 0 0 0 0 0 0 -0 0 0 0 0 0 0 0 0 0 -0 0 0
0 0 0 0 0 0 0 0 0 0 0 0 0 0 0 0 0 0 0 0 0 0 -0 -0 0 0 -0 0 0 0 0 0 0 0 0 0 0 0 0 0 0 0 0 0
0 0 0 0 0 0 0 0 0 0 0 0 0 0 0 0 0 0 0 0 0 0 0 -0 0 0 0 0 0 -0 0 0 0 0 0 0 0 0 0 0 0 0 0 0
0 0 0 0 0 0 0 0 0 0 0 0 0 0 -0 0 0 0 0 0 0 0 0 0 0 0 0 0 0 0 0 -0 0 0 0 0 0 0 0 0 0 0 0 -0
0 0 0 0 0 0 0 0 0 0 0 0 0 0 0 0 0 0 0 0 0 0 -0 -0 0 0 0 0 0 0 0 0 -0 0 0 -0 0 0 0 0 0 0 0 -0
0 0 0 0 0 0 0 0 0 0 0 0 0 0 0 0 0 0 0 0 0 0 0 0 0 0 -0 0 0 0 0 0 0 -0 0 0 0 0 0 0 0 0 -0 -0
0 0 0 0 0 0 0 0 0 0 0 0 0 0 0 0 0 0 0 0 0 0 0 0 0 0 -0 0 0 0 -0 0 0 -0 0 0 0 0 0 0 0 0 -0 -0
0 0 0 0 0 0 0 0 0 0 0 0 0 0 0 0 0 0 0 0 0 0 0 0 0 0 0 0 0 0 -0 -0 0 0 -0 0 -0 0 0 0 0 0 0 0
0 0 0 0 0 0 0 0 0 0 0 0 0 0 0 0 0 0 0 0 0 0 0 0 0 0 0 0 0 0 0 0 0 0 0 -0 0 0 0 0 0 0 0 0
0 0 0 0 0 0 0 0 0 0 0 0 0 0 0 0 0 0 0 0 0 0 0 0 0 0 0 0 -0 0 0 0 0 0 0 -0 -0 0 0 0 -0 0 0 0
0 0 0 0 0 0 0 0 0 0 0 0 0 0 0 0 0 0 0 0 0 0 0 0 0 0 0 0 0 0 0 0 0 0 0 0 -0 0 0 0 -0 -0 0 0
0 0 0 0 0 0 0 0 0 0 0 0 0 0 0 0 0 0 0 0 0 0 0 0 0 0 -0 0 0 0 0 0 0 0 0 0 0 0 0 0 0 0 0 0
0 0 0 0 0 0 0 0 0 0 0 0 0 0 0 0 0 0 0 0 0 0 0 0 0 0 0 0 0 0 -0 0 0 0 0 0 0 0 0 0 0 0 0 0
0 0 0 0 0 0 0 0 0 0 0 0 0 0 0 0 0 0 0 0 0 0 0 0 0 0 0 0 0 -0 0 0 0 0 0 0 0 0 0 0 0 0 0 0
0 0 0 0 0 0 0 0 0 0 0 0 0 0 0 0 0 0 0 0 0 0 0 0 0 0 -0 -0 -0 -0 0 0 0 0 0 0 0 0 0 0 0 0 0 0
0 0 0 0 0 0 0 0 0 0 0 0 0 0 0 0 0 0 0 0 0 0 0 0 0 -0 -0 0 0 -0 0 0 0 0 0 0 0 0 0 0 0 0 0 0
0 0 0 0 0 0 0 0 0 0 0 0 0 0 0 0 0 0 0 0 0 0 0 0 0 -0 0 0 0 0 0 0 0 0 0 0 0 0 0 0 0 0 0 0
0 0 0 0 0 0 0 0 0 0 0 0 0 0 0 0 0 0 0 0 0 0 0 -0 -0 0 0 0 0 0 0 0 0 0 0 0 0 0 0 0 0 0 0 0
0 0 0 0 0 0 0 0 0 0 0 0 0 0 0 0 0 0 0 0 0 -0 -0 0 0 0 0 0 0 0 0 0 0 0 0 0 0 0 0 0 0 0 0 0
Wind_Speed_500mb
77 79 81 81 85 85 76 25 4 36 37 14 7 10 19 16 20 33 10 14 12 18 33 22 17 7 18 50 28 5 6 8 8 24 5 25 20 12 14 4 4 4 3 9
75 77 79 77 77 80 70 24 13 23 42 9 12 17 12 9 20 19 17 12 18 24 20 16 22 25 22 37 32 21 7 6 4 12 13 7 18 9 5 7 1 2 4 8
74 75 75 73 70 70 52 17 10 14 22 13 10 13 8 19 28 14 28 15 14 30 26 20 22 23 14 42 40 27 7 7 7 2 5 8 13 17 16 5 5 8 3 2
71 72 70 68 64 62 42 21 7 7 11 13 21 9 10 18 18 18 21 9 27 28 16 36 2 21 34 37 21 19 8 10 16 11 9 9 17 20 19 12 4 9 5 12
67 69 68 63 60 57 33 12 12 10 10 14 18 8 7 17 21 18 19 13 36 34 22 30 43 30 24 18 16 23 21 5 7 11 15 14 20 24 22 11 5 12 4 8
63 65 66 62 57 53 22 22 15 5 7 8 10 8 14 20 32 19 23 32 37 32 31 37 60 59 52 41 24 15 12 9 10 4 10 12 13 24 21 16 15 13 11 2
59 60 60 57 55 48 34 24 12 5 6 6 8 20 27 27 25 23 44 39 17 22 69 70 48 44 43 37 34 33 13 12 5 6 6 7 8 13 17 22 11 11 11 16
54 54 54 52 48 46 38 24 11 7 9 15 19 16 24 30 33 23 30 28 30 48 32 10 12 1 6 5 9 23 27 8 6 6 5 6 5 16 11 7 17 11 17 23
49 49 45 46 44 44 40 25 14 8 9 4 12 20 16 13 16 18 12 36 29 24 6 8 11 7 12 7 9 9 18 19 8 7 6 3 10 25 28 13 9 6 11 25
47 44 40 38 40 41 37 27 21 12 8 12 13 9 11 11 15 12 21 28 18 25 12 8 7 6 10 6 7 7 8 5 5 7 7 4 22 31 9 10 5 32 14 26
45 41 36 32 32 33 33 27 17 18 12 35 18 16 21 22 16 6 16 14 8 11 13 9 8 6 7 8 8 11 3 3 1 3 6 4 33 10 17 22 29 30 19 31
45 40 35 30 27 27 29 20 23 24 21 28 53 34 14 19 15 15 9 8 9 7 5 5 7 6 6 13 8 12 6 7 7 9 6 4 18 17 39 32 31 20 31 38
44 39 34 29 27 26 22 27 23 22 16 27 13 2 9 18 17 18 10 8 6 1 10 9 5 6 6 8 7 14 14 16 5 9 8 29 6 37 45 36 24 19 40 52
42 37 32 28 25 24 29 28 21 12 11 8 11 16 14 11 8 16 27 36 20 16 26 9 4 5 5 6 12 9 6 20 15 7 17 27 6 55 43 36 9 35 45 56
39 35 29 26 25 26 25 21 4 6 6 8 22 27 6 10 21 23 23 34 33 15 10 6 5 5 6 6 7 8 6 1 4 5 17 8 31 54 32 14 8 25 45 46
35 31 27 23 24 21 17 5 11 8 6 9 8 11 8 12 17 13 10 20 21 12 9 11 8 8 4 5 5 12 11 11 9 13 29 26 34 29 28 5 18 25 32 42
30 27 24 19 19 17 7 6 6 10 5 5 12 11 8 15 13 5 5 7 8 11 9 10 7 6 11 5 8 16 21 14 23 20 20 15 16 25 19 4 17 28 35 38
25 23 20 16 18 18 8 13 10 12 11 7 5 8 11 10 7 4 5 4 9 12 9 9 7 5 8 8 19 23 24 24 28 9 21 31 30 16 8 15 30 38 38 46
22 21 16 17 16 10 14 12 9 9 14 7 8 5 4 10 4 9 5 7 6 8 7 6 4 4 9 13 14 19 25 20 31 37 31 20 13 21 25 35 37 40 43 49
19 14 9 7 11 13 5 2 6 13 13 13 9 8 6 3 5 5 5 5 3 5 5 4 5 9 24 19 16 17 29 35 32 29 23 5 15 30 40 42 40 42 50 56
16 16 10 17 16 7 8 7 10 13 8 13 12 19 9 4 6 4 6 4 4 5 3 4 4 5 6 19 22 28 38 35 33 34 34 23 26 39 45 43 43 47 55 66
16 12 15 18 12 7 8 8 9 11 8 12 10 12 17 6 10 6 8 6 3 9 7 5 5 2 9 17 22 28 29 24 19 10 8 22 34 42 45 46 48 54 61 69
13 8 8 7 9 10 13 15 9 8 10 14 12 7 8 6 10 8 6 7 9 1 5 5 1 7 8 12 15 16 16 14 10 9 15 24 34 36 38 43 45 52 66 71
12 13 7 10 11 13 12 13 8 11 9 18 10 4 5 4 6 6 7 7 5 6 7 3 2 11 8 7 7 7 10 9 10 15 19 27 32 38 38 44 57 65 71 70
10 10 11 16 15 9 7 18 6 8 15 11 4 2 1 3 7 6 6 7 7 6 3 2 19 9 6 4 3 3 5 8 14 17 27 34 41 45 49 50 55 58 59 56
9 11 9 11 4 13 15 17 16 12 17 11 5 3 3 8 5 6 11 6 4 3 5 26 22 8 10 11 11 11 10 10 22 29 34 39 44 55 63 65 62 59 55 51
9 13 20 14 5 9 8 20 19 15 16 6 5 7 8 2 6 6 3 4 7 27 37 42 14 11 15 20 20 21 23 22 28 36 40 46 51 51 53 55 51 52 47 43
Wind_Direction_500mb
355 358 359 360 358 359 3 4 49 351 9 42 16 355 326 307 335 343 304 302 302 327 332 322 316 331 354 322 334 341 233 300 195 204 252 220 203 190 207 260 146 54 21 121
353 356 358 0 1 0 358 354 337 356 15 48 359 336 323 308 350 327 340 303 332 350 327 326 322 332 333 327 346 356 353 247 162 143 130 162 209 185 153 114 58 52 15 117
350 354 357 359 2 4 1 4 1 351 47 77 9 346 346 339 335 312 340 292 357 347 324 323 305 335 336 342 334 350 208 284 330 345 132 170 188 190 185 189 162 146 236 226
347 351 356 357 2 6 14 20 48 6 335 358 345 331 310 332 349 336 321 294 356 344 303 318 144 342 338 334 0 1 34 5 340 316 256 252 204 182 175 201 134 195 188 231
345 348 353 356 360 6 21 30 358 333 294 310 328 345 343 323 331 323 308 300 324 316 285 285 299 312 325 285 326 347 346 3 309 310 340 217 213 193 189 188 184 254 239 246
343 346 351 355 360 5 26 11 348 315 302 337 321 350 331 310 321 298 274 306 310 299 295 304 290 281 268 256 280 304 304 329 343 316 17 141 221 215 204 195 208 217 218 270
340 344 348 353 357 3 7 6 5 352 293 296 298 299 307 307 312 285 296 305 293 298 308 303 281 258 253 245 245 231 276 316 293 303 324 183 57 28 231 234 244 181 113 138
336 340 343 350 353 359 5 2 15 355 292 296 295 304 306 311 313 303 288 300 300 312 312 299 330 176 153 163 206 212 218 266 297 309 274 329 78 26 355 292 269 198 174 144
332 334 338 341 347 352 1 2 1 328 302 266 310 308 305 316 331 328 289 315 336 346 296 325 346 352 347 10 136 173 189 240 329 324 295 351 34 328 313 272 255 351 179 157
325 327 329 332 338 345 357 359 358 355 290 285 315 289 308 301 316 296 298 332 338 6 353 350 349 353 354 316 323 169 145 181 215 238 270 110 348 332 311 202 15 331 241 180
318 318 319 320 327 331 344 352 351 340 281 290 263 274 267 289 275 278 316 317 24 346 14 355 342 332 338 308 268 335 72 301 282 273 263 111 6 27 347 326 307 309 217 168
311 311 309 308 313 316 326 340 329 315 289 277 300 291 285 251 259 281 295 296 296 351 334 344 314 330 314 320 350 18 56 11 321 354 30 9 337 346 323 312 291 290 163 144
305 304 302 301 306 313 315 317 310 311 303 309 297 288 294 304 278 260 249 258 271 324 351 281 329 304 318 336 328 333 329 3 278 357 341 345 57 356 343 335 311 221 175 156
296 296 294 293 297 302 310 312 315 317 312 291 271 308 317 268 303 265 263 259 267 297 327 274 257 277 277 295 296 288 300 314 328 311 2 353 262 336 336 341 41 140 150 151
288 287 285 285 289 299 310 309 221 288 306 286 288 304 213 270 313 307 270 258 258 281 291 268 259 264 277 263 277 254 236 90 355 301 328 293 302 326 346 354 107 139 144 140
279 276 271 275 284 297 319 263 208 189 256 307 296 298 243 317 326 301 288 244 229 215 241 244 234 250 192 277 268 269 245 250 273 290 314 311 327 346 347 51 131 144 142 143
265 262 262 269 276 286 266 244 210 226 312 287 292 289 279 322 329 292 274 205 210 204 248 246 251 235 199 244 261 269 304 285 304 313 320 315 324 323 325 265 159 151 138 140
250 247 259 268 273 277 260 174 225 268 255 242 270 279 304 351 320 314 230 180 228 225 250 254 238 232 226 259 250 293 299 304 308 323 314 307 313 302 219 184 167 152 153 153
225 234 257 277 264 204 176 185 230 257 233 264 228 268 308 342 296 283 269 217 237 220 237 233 219 218 235 260 291 310 311 303 298 305 309 318 306 185 184 177 165 160 155 157
202 219 214 201 160 150 178 214 197 206 219 231 248 244 255 290 358 293 293 220 262 267 231 189 236 258 280 321 331 319 315 311 304 292 293 213 186 185 181 183 181 170 160 159
194 195 179 158 164 180 199 207 207 186 228 222 233 223 250 222 231 280 239 298 239 263 191 231 244 253 349 339 334 333 332 321 307 274 258 241 235 192 177 177 176 175 169 166
181 162 148 157 185 180 217 203 201 202 230 199 206 221 211 216 210 227 224 263 209 251 163 237 245 233 321 324 332 339 337 349 356 30 162 192 202 191 182 175 172 174 173 165
178 191 151 157 168 208 208 191 192 199 197 198 195 199 201 181 219 234 249 238 237 351 240 233 248 332 308 325 338 350 2 12 41 101 145 168 170 171 173 163 164 164 158 161
196 167 190 211 195 224 202 199 185 199 193 170 187 211 190 181 216 227 248 240 253 233 238 225 345 322 286 316 355 3 26 49 79 108 131 145 152 152 159 159 155 156 155 156
200 206 217 217 239 256 254 226 242 187 175 158 156 174 140 221 258 228 286 247 240 228 302 351 330 297 247 173 155 109 81 101 123 136 138 139 145 147 142 145 144 147 145 144
225 235 248 218 203 244 236 230 240 207 164 150 152 137 212 233 246 242 223 260 263 53 343 319 321 209 215 190 168 153 138 131 128 132 135 140 140 137 136 135 141 148 150 148
215 239 228 233 257 246 237 216 223 194 164 162 149 211 220 28 234 247 232 264 335 302 304 303 264 216 211 194 176 165 152 145 139 136 142 143 142 138 141 143 146 138 138 135
Wind_Speed_850mb
77 79 81 81 85 85 76 25 4 36 37 14 7 10 19 16 20 33 10 14 12 18 33 22 17 7 18 50 28 5 6 8 8 24 5 25 20 12 14 4 4 4 3 9
75 77 79 77 77 80 70 24 13 23 42 9 12 17 12 9 20 19 17 12 18 24 20 16 22 25 22 37 32 21 7 6 4 12 13 7 18 9 5 7 1 2 4 8
74 75 75 73 70 70 52 17 10 14 22 13 10 13 8 19 28 14 28 15 14 30 26 20 22 23 14 42 40 27 7 7 7 2 5 8 13 17 16 5 5 8 3 2
71 72 70 68 64 62 42 21 7 7 11 13 21 9 10 18 18 18 21 9 27 28 16 36 2 21 34 37 21 19 8 10 16 11 9 9 17 20 19 12 4 9 5 12
67 69 68 63 60 57 33 12 12 10 10 14 18 8 7 17 21 18 19 13 36 34 22 30 43 30 24 18 16 23 21 5 7 11 15 14 20 24 22 11 5 12 4 8
63 65 66 62 57 53 22 22 15 5 7 8 10 8 14 20 32 19 23 32 37 32 31 37 60 59 52 41 24 15 12 9 10 4 10 12 13 24 21 16 15 13 11 2
59 60 60 57 55 48 34 24 12 5 6 6 8 20 27 27 25 23 44 39 17 22 69 70 48 44 43 37 34 33 13 12 5 6 6 7 8 13 17 22 11 11 11 16
54 54 54 52 48 46 38 24 11 7 9 15 19 16 24 30 33 23 30 28 30 48 32 10 12 1 6 5 9 23 27 8 6 6 5 6 5 16 11 7 17 11 17 23
49 49 45 46 44 44 40 25 14 8 9 4 12 20 16 13 16 18 12 36 29 24 6 8 11 7 12 7 9 9 18 19 8 7 6 3 10 25 28 13 9 6 11 25
47 44 40 38 40 41 37 27 21 12 8 12 13 9 11 11 15 12 21 28 18 25 12 8 7 6 10 6 7 7 8 5 5 7 7 4 22 31 9 10 5 32 14 26
45 41 36 32 32 33 33 27 17 18 12 35 18 16 21 22 16 6 16 14 8 11 13 9 8 6 7 8 8 11 3 3 1 3 6 4 33 10 17 22 29 30 19 31
45 40 35 30 27 27 29 20 23 24 21 28 53 34 14 19 15 15 9 8 9 7 5 5 7 6 6 13 8 12 6 7 7 9 6 4 18 17 39 32 31 20 31 38
44 39 34 29 27 26 22 27 23 22 16 27 13 2 9 18 17 18 10 8 6 1 10 9 5 6 6 8 7 14 14 16 5 9 8 29 6 37 45 36 24 19 40 52
42 37 32 28 25 24 29 28 21 12 11 8 11 16 14 11 8 16 27 36 20 16 26 9 4 5 5 6 12 9 6 20 15 7 17 27 6 55 43 36 9 35 45 56
39 35 29 26 25 26 25 21 4 6 6 8 22 27 6 10 21 23 23 34 33 15 10 6 5 5 6 6 7 8 6 1 4 5 17 8 31 54 32 14 8 25 45 46
35 31 27 23 24 21 17 5 11 8 6 9 8 11 8 12 17 13 10 20 21 12 9 11 8 8 4 5 5 12 11 11 9 13 29 26 34 29 28 5 18 25 32 42
30 27 24 19 19 17 7 6 6 10 5 5 12 11 8 15 13 5 5 7 8 11 9 10 7 6 11 5 8 16 21 14 23 20 20 15 16 25 19 4 17 28 35 38
25 23 20 16 18 18 8 13 10 12 11 7 5 8 11 10 7 4 5 4 9 12 9 9 7 5 8 8 19 23 24 24 28 9 21 31 30 16 8 15 30 38 38 46
22 21 16 17 16 10 14 12 9 9 14 7 8 5 4 10 4 9 5 7 6 8 7 6 4 4 9 13 14 19 25 20 31 37 31 20 13 21 25 35 37 40 43 49
19 14 9 7 11 13 5 2 6 13 13 13 9 8 6 3 5 5 5 5 3 5 5 4 5 9 24 19 16 17 29 35 32 29 23 5 15 30 40 42 40 42 50 56
16 16 10 17 16 7 8 7 10 13 8 13 12 19 9 4 6 4 6 4 4 5 3 4 4 5 6 19 22 28 38 35 33 34 34 23 26 39 45 43 43 47 55 66
16 12 15 18 12 7 8 8 9 11 8 12 10 12 17 6 10 6 8 6 3 9 7 5 5 2 9 17 22 28 29 24 19 10 8 22 34 42 45 46 48 54 61 69
13 8 8 7 9 10 13 15 9 8 10 14 12 7 8 6 10 8 6 7 9 1 5 5 1 7 8 12 15 16 16 14 10 9 15 24 34 36 38 43 45 52 66 71
12 13 7 10 11 13 12 13 8 11 9 18 10 4 5 4 6 6 7 7 5 6 7 3 2 11 8 7 7 7 10 9 10 15 19 27 32 38 38 44 57 65 71 70
10 10 11 16 15 9 7 18 6 8 15 11 4 2 1 3 7 6 6 7 7 6 3 2 19 9 6 4 3 3 5 8 14 17 27 34 41 45 49 50 55 58 59 56
9 11 9 11 4 13 15 17 16 12 17 11 5 3 3 8 5 6 11 6 4 3 5 26 22 8 10 11 11 11 10 10 22 29 34 39 44 55 63 65 62 59 55 51
9 13 20 14 5 9 8 20 19 15 16 6 5 7 8 2 6 6 3 4 7 27 37 42 14 11 15 20 20 21 23 22 28 36 40 46 51 51 53 55 51 52 47 43
Wind_Direction_850mb
355 358 359 360 358 359 3 4 49 351 9 42 16 355 326 307 335 343 304 302 302 327 332 322 316 331 354 322 334 341 233 300 195 204 252 220 203 190 207 260 146 54 21 121
353 356 358 0 1 0 358 354 337 356 15 48 359 336 323 308 350 327 340 303 332 350 327 326 322 332 333 327 346 356 353 247 162 143 130 162 209 185 153 114 58 52 15 117
350 354 357 359 2 4 1 4 1 351 47 77 9 346 346 339 335 312 340 292 357 347 324 323 305 335 336 342 334 350 208 284 330 345 132 170 188 190 185 189 162 146 236 226
347 351 356 357 2 6 14 20 48 6 335 358 345 331 310 332 349 336 321 294 356 344 303 318 144 342 338 334 0 1 34 5 340 316 256 252 204 182 175 201 134 195 188 231
345 348 353 356 360 6 21 30 358 333 294 310 328 345 343 323 331 323 308 300 324 316 285 285 299 312 325 285 326 347 346 3 309 310 340 217 213 193 189 188 184 254 239 246
343 346 351 355 360 5 26 11 348 315 302 337 321 350 331 310 321 298 274 306 310 299 295 304 290 281 268 256 280 304 304 329 343 316 17 141 221 215 204 195 208 217 218 270
340 344 348 353 357 3 7 6 5 352 293 296 298 299 307 307 312 285 296 305 293 298 308 303 281 258 253 245 245 231 276 316 293 303 324 183 57 28 231 234 244 181 113 138
336 340 343 350 353 359 5 2 15 355 292 296 295 304 306 311 313 303 288 300 300 312 312 299 330 176 153 163 206 212 218 266 297 309 274 329 78 26 355 292 269 198 174 144
332 334 338 341 347 352 1 2 1 328 302 266 310 308 305 316 331 328 289 315 336 346 296 325 346 352 347 10 136 173 189 240 329 324 295 351 34 328 313 272 255 351 179 157
325 327 329 332 338 345 357 359 358 355 290 285 315 289 308 301 316 296 298 332 338 6 353 350 349 353 354 316 323 169 145 181 215 238 270 110 348 332 311 202 15 331 241 180
318 318 319 320 327 331 344 352 351 340 281 290 263 274 267 289 275 278 316 317 24 346 14 355 342 332 338 308 268 335 72 301 282 273 263 111 6 27 347 326 307 309 217 168
311 311 309 308 313 316 326 340 329 315 289 277 300 291 285 251 259 281 295 296 296 351 334 344 314 330 314 320 350 18 56 11 321 354 30 9 337 346 323 312 291 290 163 144
305 304 302 301 306 313 315 317 310 311 303 309 297 288 294 304 278 260 249 258 271 324 351 281 329 304 318 336 328 333 329 3 278 357 341 345 57 356 343 335 311 221 175 156
296 296 294 293 297 302 310 312 315 317 312 291 271 308 317 268 303 265 263 259 267 297 327 274 257 277 277 295 296 288 300 314 328 311 2 353 262 336 336 341 41 140 150 151
288 287 285 285 289 299 310 309 221 288 306 286 288 304 213 270 313 307 270 258 258 281 291 268 259 264 277 263 277 254 236 90 355 301 328 293 302 326 346 354 107 139 144 140
279 276 271 275 284 297 319 263 208 189 256 307 296 298 243 317 326 301 288 244 229 215 241 244 234 250 192 277 268 269 245 250 273 290 314 311 327 346 347 51 131 144 142 143
265 262 262 269 276 286 266 244 210 226 312 287 292 289 279 322 329 292 274 205 210 204 248 246 251 235 199 244 261 269 304 285 304 313 320 315 324 323 325 265 159 151 138 140
250 247 259 268 273 277 260 174 225 268 255 242 270 279 304 351 320 314 230 180 228 225 250 254 238 232 226 259 250 293 299 304 308 323 314 307 313 302 219 184 167 152 153 153
225 234 257 277 264 204 176 185 230 257 233 264 228 268 308 342 296 283 269 217 237 220 237 233 219 218 235 260 291 310 311 303 298 305 309 318 306 185 184 177 165 160 155 157
202 219 214 201 160 150 178 214 197 206 219 231 248 244 255 290 358 293 293 220 262 267 231 189 236 258 280 321 331 319 315 311 304 292 293 213 186 185 181 183 181 170 160 159
194 195 179 158 164 180 199 207 207 186 228 222 233 223 250 222 231 280 239 298 239 263 191 231 244 253 349 339 334 333 332 321 307 274 258 241 235 192 177 177 176 175 169 166
181 162 148 157 185 180 217 203 201 202 230 199 206 221 211 216 210 227 224 263 209 251 163 237 245 233 321 324 332 339 337 349 356 30 162 192 202 191 182 175 172 174 173 165
178 191 151 157 168 208 208 191 192 199 197 198 195 199 201 181 219 234 249 238 237 351 240 233 248 332 308 325 338 350 2 12 41 101 145 168 170 171 173 163 164 164 158 161
196 167 190 211 195 224 202 199 185 199 193 170 187 211 190 181 216 227 248 240 253 233 238 225 345 322 286 316 355 3 26 49 79 108 131 145 152 152 159 159 155 156 155 156
200 206 217 217 239 256 254 226 242 187 175 158 156 174 140 221 258 228 286 247 240 228 302 351 330 297 247 173 155 109 81 101 123 136 138 139 145 147 142 145 144 147 145 144
225 235 248 218 203 244 236 230 240 207 164 150 152 137 212 233 246 242 223 260 263 53 343 319 321 209 215 190 168 153 138 131 128 132 135 140 140 137 136 135 141 148 150 148
215 239 228 233 257 246 237 216 223 194 164 162 149 211 220 28 234 247 232 264 335 302 304 303 264 216 211 194 176 165 152 145 139 136 142 143 142 138 141 143 146 138 138 135